OBJECT A, 65945

Orbit data source: Space-Track

You're viewing an Uncataloged Satellite

Recently launched and/or uncataloged satellites may have evolving metadata. Metadata may include but not limited to: Owner, Maufacturer, Bus, Motor, and Mission.

OBJECT A, 65945 is a satellite owned by CAST (CN) in LEO that was launched on Mon, 13 Oct 2025 UTC via a CHANG ZHENG 2D launch vehicle from the Jiuquan Satellite Launch Center, China (JSC). Unknown objects in Earth's orbit typically refer to objects detected orbiting the Earth but have not yet been identified or cataloged. These objects could be anything from previously untracked satellites, spent rocket stages, debris from satellite collisions, or even natural meteoroids temporarily captured by Earth's gravity.

Loading next visibility...
Identifier
65945, 2025-227A
Orbit
LEO
Country
Flag of CNCN / PRC
Related business
Manufacturer
CAST
Mission
Operational Civil Imaging
Bus & Motor
SY30, Unknown motor
Mass
~1,000 kg wet, ~1,000 kg dry
Launch date (UTC)
2025-10-13 (8 months ago)
Launch vehicle
CHANG ZHENG 2D
Launch site
Jiuquan Satellite Launch Center, China (JSC)
Object type
Unknown
Shape & HBR
Box + 2 Pan, 4.0 m
Radar Cross Section
3.085 m², Large (>1 m²)

Expand to show TLE details & history
Last TLE update: 12 hours ago

TLE from 12 hours ago
0 OBJECT A
1 65945U 25227A   26171.34894106  .00004791  00000-0  19918-3 0  9991
2 65945  80.0034 130.2355 0010334 164.9905 195.1633 15.23602049 38034
Epoch: 2026-06-20T08:22Z
TLE epoch observation values (Epoch: 2026-06-20T08:22:28.507Z)
Latitude
0.00003°
Longitude
96.05188°
Altitude
504.852 km
Speed
7.608 km/s
True Right ascension
08h 40m 56s
True Declination
0° 00' 00"
Sunlit
Object was in daylight at epoch
Visualization orbit readout
Latitude
Unknown
Longitude
Unknown
Altitude
Unknown
Speed
Unknown
Apparent Right ascension
Unknown
Apparent Declination
Unknown
Sunlit
N/A
Visualization observer readout
Local Sidereal Time
07:20:45
Azimuth
Unknown
Elevation
Unknown
Doppler factor
Unknown
Orbital elements
Apogee altitude
499.177 km
Perigee altitude
484.978 km
Semi-major axis
6,870.214 km
Eccentricity
0.00103
Inclination
80.0034°
RAAN
130.2355°
Arg. of periapsis
164.9905°
True anomaly
195.13236°
Mean anomaly
195.1633°
Eccentric anomaly
195.14783°
Mean motion
3.81143 °/min
Orbital period
94.45 mins
BSTAR
0.00019918
Loading maneuver chart data...
Computing Atmospheric mass density...
Loading historical data...
Loading historical data...
Loading historical data...
Loading historical data...
Loading historical data...
Loading historical data...
Loading historical data...
Other satellites on launch #227 in the year 2025 (2025-10-13 UTC)

Documentation

Showing up to 5 results
|